Time,TemperatureF,DewpointF,PressureIn,WindDirection,WindDirectionDegrees,WindSpeedMPH,WindSpeedGustMPH,Humidity,HourlyPrecipIn,Conditions,Clouds,dailyrainin,SoftwareType,DateUTC
2013-03-14 00:07:00,33.7,21.0,30.04,West,280,5.0,10.0,59,0.00,,,0.00,weatherlink.com 1.10,2013-03-14 04:07:00,
2013-03-14 00:22:00,33.7,21.0,30.03,WNW,302,7.0,9.0,59,0.00,,,0.00,weatherlink.com 1.10,2013-03-14 04:22:00,
2013-03-14 00:37:00,33.8,21.0,30.04,WNW,302,4.0,9.0,59,0.00,,,0.00,weatherlink.com 1.10,2013-03-14 04:37:00,
2013-03-14 00:52:00,33.7,21.0,30.03,West,279,2.0,8.0,59,0.00,,,0.00,weatherlink.com 1.10,2013-03-14 04:52:00,
2013-03-14 01:07:00,33.7,21.0,30.03,WNW,299,1.0,8.0,59,0.00,,,0.00,weatherlink.com 1.10,2013-03-14 05:07:00,
2013-03-14 01:22:00,33.7,21.0,30.04,NW,309,5.0,9.0,59,0.00,,,0.00,weatherlink.com 1.10,2013-03-14 05:22:00,
2013-03-14 01:37:00,33.4,20.0,30.04,NW,311,3.0,7.0,59,0.00,,,0.00,weatherlink.com 1.10,2013-03-14 05:37:00,
2013-03-14 01:52:00,33.2,20.0,30.04,NW,306,6.0,10.0,58,0.00,,,0.00,weatherlink.com 1.10,2013-03-14 05:52:00,
2013-03-14 02:07:00,33.3,19.0,30.04,WNW,299,9.0,10.0,57,0.00,,,0.00,weatherlink.com 1.10,2013-03-14 06:07:00,
2013-03-14 02:22:00,33.4,20.0,30.04,WNW,298,4.0,11.0,58,0.00,,,0.00,weatherlink.com 1.10,2013-03-14 06:22:00,
2013-03-14 02:37:00,33.2,21.0,30.04,WNW,302,0.0,15.0,60,0.00,,,0.00,weatherlink.com 1.10,2013-03-14 06:37:00,
2013-03-14 02:52:00,33.0,22.0,30.04,NNE,22,2.0,12.0,63,0.00,,,0.00,weatherlink.com 1.10,2013-03-14 06:52:00,
2013-03-14 03:07:00,32.3,21.0,30.04,WNW,299,0.0,6.0,64,0.00,,,0.00,weatherlink.com 1.10,2013-03-14 07:07:00,
2013-03-14 03:22:00,31.7,20.0,30.04,NW,304,1.0,6.0,63,0.00,,,0.00,weatherlink.com 1.10,2013-03-14 07:22:00,
2013-03-14 03:37:00,31.9,20.0,30.04,NW,315,2.0,10.0,62,0.00,,,0.00,weatherlink.com 1.10,2013-03-14 07:37:00,
2013-03-14 03:52:00,31.7,20.0,30.03,NW,304,3.0,8.0,63,0.00,,,0.00,weatherlink.com 1.10,2013-03-14 07:52:00,
2013-03-14 04:07:00,31.9,19.0,30.03,NW,306,0.0,9.0,60,0.00,,,0.00,weatherlink.com 1.10,2013-03-14 08:07:00,
2013-03-14 04:22:00,31.8,20.0,30.02,SW,236,0.0,5.0,61,0.00,,,0.00,weatherlink.com 1.10,2013-03-14 08:22:00,
2013-03-14 04:37:00,31.9,18.0,30.02,WNW,290,0.0,5.0,58,0.00,,,0.00,weatherlink.com 1.10,2013-03-14 08:37:00,
2013-03-14 04:52:00,32.0,19.0,30.03,WNW,287,5.0,9.0,59,0.00,,,0.00,weatherlink.com 1.10,2013-03-14 08:52:00,
2013-03-14 05:07:00,31.9,19.0,30.03,NW,304,3.0,8.0,59,0.00,,,0.00,weatherlink.com 1.10,2013-03-14 09:07:00,
2013-03-14 05:22:00,32.1,19.0,30.03,WNW,301,2.0,9.0,58,0.00,,,0.00,weatherlink.com 1.10,2013-03-14 09:22:00,
2013-03-14 05:37:00,32.1,19.0,30.03,West,268,0.0,14.0,58,0.00,,,0.00,weatherlink.com 1.10,2013-03-14 09:37:00,
2013-03-14 05:52:00,32.0,19.0,30.04,NW,309,1.0,4.0,60,0.00,,,0.00,weatherlink.com 1.10,2013-03-14 09:52:00,
2013-03-14 06:07:00,31.9,20.0,30.04,WNW,294,1.0,9.0,61,0.00,,,0.00,weatherlink.com 1.10,2013-03-14 10:07:00,
2013-03-14 06:22:00,31.9,20.0,30.04,NW,319,4.0,10.0,62,0.00,,,0.00,weatherlink.com 1.10,2013-03-14 10:22:00,
2013-03-14 06:37:00,32.0,20.0,30.04,NW,312,2.0,14.0,61,0.00,,,0.00,weatherlink.com 1.10,2013-03-14 10:37:00,
2013-03-14 06:52:00,32.2,19.0,30.04,NW,307,11.0,14.0,58,0.00,,,0.00,weatherlink.com 1.10,2013-03-14 10:52:00,
2013-03-14 07:07:00,32.2,19.0,30.05,NNW,332,4.0,11.0,58,0.00,,,0.00,weatherlink.com 1.10,2013-03-14 11:07:00,
2013-03-14 07:22:00,32.0,19.0,30.05,WNW,288,5.0,16.0,59,0.00,,,0.00,weatherlink.com 1.10,2013-03-14 11:22:00,
2013-03-14 07:37:00,31.8,19.0,30.06,WNW,292,2.0,12.0,60,0.00,,,0.00,weatherlink.com 1.10,2013-03-14 11:37:00,
2013-03-14 07:54:00,31.5,19.0,30.07,NW,324,11.0,13.0,60,0.00,,,0.00,weatherlink.com 1.10,2013-03-14 11:54:00,
2013-03-14 08:08:00,31.6,19.0,30.07,NW,306,5.0,12.0,59,0.00,,,0.00,weatherlink.com 1.10,2013-03-14 12:08:00,
2013-03-14 08:23:00,31.7,18.0,30.08,WNW,286,3.0,9.0,58,0.00,,,0.00,weatherlink.com 1.10,2013-03-14 12:23:00,
2013-03-14 08:38:00,32.3,18.0,30.08,WNW,298,6.0,11.0,57,0.00,,,0.00,weatherlink.com 1.10,2013-03-14 12:38:00,
2013-03-14 08:53:00,32.9,19.0,30.08,NW,311,6.0,14.0,57,0.00,,,0.00,weatherlink.com 1.10,2013-03-14 12:53:00,
2013-03-14 09:08:00,33.4,18.0,30.09,NW,306,7.0,16.0,54,0.00,,,0.00,weatherlink.com 1.10,2013-03-14 13:08:00,
2013-03-14 09:23:00,34.0,19.0,30.09,NW,315,3.0,14.0,54,0.00,,,0.00,weatherlink.com 1.10,2013-03-14 13:23:00,
2013-03-14 09:38:00,34.4,18.0,30.09,WNW,302,3.0,17.0,52,0.00,,,0.00,weatherlink.com 1.10,2013-03-14 13:38:00,
2013-03-14 09:53:00,34.6,18.0,30.09,NW,304,4.0,16.0,52,0.00,,,0.00,weatherlink.com 1.10,2013-03-14 13:53:00,
2013-03-14 10:08:00,35.4,19.0,30.09,NNW,333,0.0,12.0,52,0.00,,,0.00,weatherlink.com 1.10,2013-03-14 14:08:00,
2013-03-14 10:23:00,35.6,18.0,30.09,WNW,299,3.0,17.0,50,0.00,,,0.00,weatherlink.com 1.10,2013-03-14 14:23:00,
2013-03-14 10:38:00,36.1,20.0,30.10,WNW,287,1.0,13.0,52,0.00,,,0.00,weatherlink.com 1.10,2013-03-14 14:38:00,
2013-03-14 10:53:00,36.7,20.0,30.09,WNW,295,12.0,12.0,52,0.00,,,0.00,weatherlink.com 1.10,2013-03-14 14:53:00,
2013-03-14 11:08:00,37.0,20.0,30.09,WNW,288,7.0,15.0,50,0.00,,,0.00,weatherlink.com 1.10,2013-03-14 15:08:00,
2013-03-14 11:23:00,37.0,21.0,30.09,NW,313,6.0,12.0,52,0.00,,,0.00,weatherlink.com 1.10,2013-03-14 15:23:00,
2013-03-14 11:38:00,37.5,20.0,30.09,NW,313,1.0,12.0,50,0.00,,,0.00,weatherlink.com 1.10,2013-03-14 15:38:00,
2013-03-14 11:53:00,37.6,21.0,30.08,WSW,253,5.0,12.0,51,0.00,,,0.00,weatherlink.com 1.10,2013-03-14 15:53:00,
2013-03-14 12:09:00,38.0,20.0,30.07,WNW,302,1.0,12.0,49,0.00,,,0.00,weatherlink.com 1.10,2013-03-14 16:09:00,
2013-03-14 12:23:00,38.5,21.0,30.07,NW,304,3.0,11.0,50,0.00,,,0.00,weatherlink.com 1.10,2013-03-14 16:23:00,
2013-03-14 12:38:00,38.8,21.0,30.06,NW,307,13.0,16.0,49,0.00,,,0.00,weatherlink.com 1.10,2013-03-14 16:38:00,
2013-03-14 12:53:00,39.0,21.0,30.06,WNW,287,0.0,15.0,48,0.00,,,0.00,weatherlink.com 1.10,2013-03-14 16:53:00,
2013-03-14 13:08:00,40.8,22.0,30.06,WNW,297,6.0,16.0,48,0.00,,,0.00,weatherlink.com 1.10,2013-03-14 17:08:00,
2013-03-14 13:23:00,41.1,24.0,30.06,NW,326,9.0,9.0,50,0.00,,,0.00,weatherlink.com 1.10,2013-03-14 17:23:00,
2013-03-14 13:38:00,40.5,22.0,30.05,WNW,286,2.0,18.0,47,0.00,,,0.00,weatherlink.com 1.10,2013-03-14 17:38:00,
2013-03-14 14:08:00,40.9,21.0,30.05,WNW,293,11.0,18.0,46,0.00,,,0.00,weatherlink.com 1.10,2013-03-14 18:08:00,
2013-03-14 14:23:00,41.1,21.0,30.04,NNW,334,5.0,19.0,44,0.00,,,0.00,weatherlink.com 1.10,2013-03-14 18:23:00,
2013-03-14 14:38:00,41.4,21.0,30.02,NNW,327,13.0,13.0,44,0.00,,,0.00,weatherlink.com 1.10,2013-03-14 18:38:00,
2013-03-14 14:53:00,42.2,20.0,30.02,NW,325,2.0,13.0,42,0.00,,,0.00,weatherlink.com 1.10,2013-03-14 18:53:00,
2013-03-14 15:08:00,42.0,20.0,30.02,WNW,292,6.0,14.0,41,0.00,,,0.00,weatherlink.com 1.10,2013-03-14 19:08:00,
2013-03-14 15:23:00,42.0,20.0,30.02,WNW,293,6.0,19.0,42,0.00,,,0.00,weatherlink.com 1.10,2013-03-14 19:23:00,
2013-03-14 15:38:00,42.4,21.0,30.01,NNE,17,3.0,13.0,42,0.00,,,0.00,weatherlink.com 1.10,2013-03-14 19:38:00,
2013-03-14 15:53:00,43.8,21.0,30.02,NW,325,4.0,11.0,40,0.00,,,0.00,weatherlink.com 1.10,2013-03-14 19:53:00,
2013-03-14 16:09:00,43.3,20.0,30.01,WNW,300,4.0,15.0,40,0.00,,,0.00,weatherlink.com 1.10,2013-03-14 20:09:00,
2013-03-14 16:24:00,42.9,19.0,30.01,WNW,301,2.0,19.0,39,0.00,,,0.00,weatherlink.com 1.10,2013-03-14 20:24:00,
2013-03-14 16:39:00,43.2,20.0,30.02,WNW,303,0.0,17.0,39,0.00,,,0.00,weatherlink.com 1.10,2013-03-14 20:39:00,
2013-03-14 16:54:00,43.3,20.0,30.03,WNW,290,6.0,11.0,40,0.00,,,0.00,weatherlink.com 1.10,2013-03-14 20:54:00,
2013-03-14 17:09:00,43.5,20.0,30.03,WNW,300,2.0,13.0,39,0.00,,,0.00,weatherlink.com 1.10,2013-03-14 21:09:00,
2013-03-14 17:24:00,43.4,19.0,30.02,NW,304,7.0,12.0,38,0.00,,,0.00,weatherlink.com 1.10,2013-03-14 21:24:00,
2013-03-14 17:39:00,42.8,19.0,30.02,NW,325,2.0,14.0,38,0.00,,,0.00,weatherlink.com 1.10,2013-03-14 21:39:00,
2013-03-14 17:54:00,42.3,19.0,30.03,WNW,303,2.0,13.0,39,0.00,,,0.00,weatherlink.com 1.10,2013-03-14 21:54:00,
2013-03-14 18:09:00,42.7,20.0,30.03,NW,312,6.0,8.0,40,0.00,,,0.00,weatherlink.com 1.10,2013-03-14 22:09:00,
2013-03-14 18:24:00,42.2,19.0,30.03,NW,306,7.0,9.0,40,0.00,,,0.00,weatherlink.com 1.10,2013-03-14 22:24:00,
2013-03-14 18:39:00,40.8,19.0,30.03,NW,309,4.0,12.0,41,0.00,,,0.00,weatherlink.com 1.10,2013-03-14 22:39:00,
2013-03-14 18:54:00,40.2,19.0,30.03,WNW,303,3.0,6.0,43,0.00,,,0.00,weatherlink.com 1.10,2013-03-14 22:54:00,
2013-03-14 19:09:00,39.6,19.0,30.03,WNW,289,3.0,6.0,43,0.00,,,0.00,weatherlink.com 1.10,2013-03-14 23:09:00,
2013-03-14 19:24:00,39.2,19.0,30.03,WNW,298,0.0,8.0,44,0.00,,,0.00,weatherlink.com 1.10,2013-03-14 23:24:00,
2013-03-14 19:39:00,38.6,18.0,30.04,WNW,298,1.0,6.0,44,0.00,,,0.00,weatherlink.com 1.10,2013-03-14 23:39:00,
2013-03-14 19:54:00,38.6,18.0,30.04,WNW,303,3.0,10.0,44,0.00,,,0.00,weatherlink.com 1.10,2013-03-14 23:54:00,
2013-03-14 20:09:00,38.5,18.0,30.04,WNW,288,2.0,9.0,43,0.00,,,0.00,weatherlink.com 1.10,2013-03-15 00:09:00,
2013-03-14 20:24:00,38.5,18.0,30.04,WNW,302,3.0,10.0,44,0.00,,,0.00,weatherlink.com 1.10,2013-03-15 00:24:00,
2013-03-14 20:39:00,38.2,18.0,30.04,WNW,298,2.0,7.0,45,0.00,,,0.00,weatherlink.com 1.10,2013-03-15 00:39:00,
2013-03-14 20:54:00,38.0,18.0,30.05,NW,307,2.0,9.0,45,0.00,,,0.00,weatherlink.com 1.10,2013-03-15 00:54:00,
2013-03-14 21:09:00,37.8,18.0,30.05,NW,304,0.0,6.0,45,0.00,,,0.00,weatherlink.com 1.10,2013-03-15 01:09:00,
2013-03-14 21:24:00,37.7,18.0,30.05,NW,313,4.0,11.0,46,0.00,,,0.00,weatherlink.com 1.10,2013-03-15 01:24:00,
2013-03-14 21:39:00,37.5,19.0,30.04,WNW,287,3.0,7.0,47,0.00,,,0.00,weatherlink.com 1.10,2013-03-15 01:39:00,
2013-03-14 21:54:00,37.2,18.0,30.05,WNW,300,0.0,6.0,47,0.00,,,0.00,weatherlink.com 1.10,2013-03-15 01:54:00,
2013-03-14 22:09:00,36.9,19.0,30.05,WNW,299,0.0,2.0,49,0.00,,,0.00,weatherlink.com 1.10,2013-03-15 02:09:00,
2013-03-14 22:24:00,36.8,19.0,30.06,WNW,282,4.0,6.0,49,0.00,,,0.00,weatherlink.com 1.10,2013-03-15 02:24:00,
2013-03-14 22:39:00,36.8,19.0,30.06,NW,314,4.0,5.0,49,0.00,,,0.00,weatherlink.com 1.10,2013-03-15 02:39:00,
2013-03-14 22:54:00,36.8,19.0,30.06,WNW,298,2.0,7.0,49,0.00,,,0.00,weatherlink.com 1.10,2013-03-15 02:54:00,
2013-03-14 23:09:00,36.5,19.0,30.06,WNW,302,0.0,4.0,50,0.00,,,0.00,weatherlink.com 1.10,2013-03-15 03:09:00,
2013-03-14 23:24:00,36.3,19.0,30.06,WNW,299,0.0,6.0,50,0.00,,,0.00,weatherlink.com 1.10,2013-03-15 03:24:00,
2013-03-14 23:39:00,36.1,19.0,30.06,WNW,300,0.0,8.0,50,0.00,,,0.00,weatherlink.com 1.10,2013-03-15 03:39:00,
2013-03-14 23:54:00,36.2,19.0,30.06,WNW,300,2.0,4.0,50,0.00,,,0.00,weatherlink.com 1.10,2013-03-15 03:54:00,